Location: Caltech
(34.1382°N, 118.1253°W)
Time: 22:34:06
(UTC-07:00)

Cosmos 1626 - Visible Passes

Search period start: 28 June 2017 00:00
Search period end: 08 July 2017 00:00
Orbit: 496 x 500 km, 82.5° (Epoch: 28 June)

Date Brightness Start Highest point End Pass type
(mag) Time Alt. Az. Time Alt. Az. Time Alt. Az.
28 Jun 2.9 22:12:41 37° ENE 22:12:41 37° ENE 22:15:31 10° NNE visible
29 Jun 3.3 21:52:02 28° E 21:52:02 28° E 21:54:52 10° NNE visible
29 Jun 4.9 23:26:39 13° W 23:27:02 13° WNW 23:28:47 10° NW visible
30 Jun 3.7 21:31:21 19° E 21:31:21 19° E 21:34:03 10° NE visible
30 Jun 4.4 23:05:57 18° W 23:06:32 19° WNW 23:09:13 10° NNW visible
01 Jul 4.0 21:10:36 13° E 21:11:02 13° E 21:12:53 10° ENE visible
01 Jul 3.9 22:45:13 24° WSW 22:46:05 27° WNW 22:49:16 10° NNW visible
02 Jul 3.3 22:24:26 30° WSW 22:25:38 39° W 22:29:09 10° N visible
03 Jul 2.5 22:03:35 30° SSW 22:05:12 61° W 22:08:54 10° N visible
04 Jul 2.0 21:42:40 24° S 21:44:49 87° E 21:48:32 10° N visible
05 Jul 2.2 21:21:41 16° SSE 21:24:25 55° E 21:28:05 10° NNE visible
06 Jul 2.7 21:00:39 10° SSE 21:04:04 36° E 21:07:30 10° NNE visible
06 Jul 5.4 22:39:10 10° W 22:39:33 10° WNW 22:39:57 10° WNW visible
07 Jul 3.3 20:40:41 10° SE 20:43:43 24° E 20:46:47 10° NE visible
07 Jul 5.0 22:16:52 10° WSW 22:19:03 15° WNW 22:21:14 10° NW visible
